AAL4L KMIA-KDEN

Flight info

Callsign AAL4L
Flight time N/A
Altitude 32000
Route HURCN4 SMELZ Q116 JAWJA CABLO KT15M KM27I KK42C KIISS CLASH5
Aircraft B738/M-SDE2E3FGHIRWXY/LB1

Departure

Time N/A
Airport Miami International Airport (KMIA)

Arrival

Time 2026-05-04 16:22
Airport Denver International Airport (KDEN)
Time Latitude Longitude Altitude Speed Heading
2026-05-04 16:21 39.86258 -104.67477 5373 ft 0 kts
2026-05-04 16:35 39.86227 -104.67478 5375 ft 4 kts
2026-05-04 16:36 39.86205 -104.67480 5375 ft 3 kts
2026-05-04 16:36 39.86157 -104.67468 5375 ft 1 kts 331°
2026-05-04 16:37 39.86153 -104.67465 5375 ft 0 kts 331°
2026-05-04 16:39 39.86153 -104.67466 5377 ft 1 kts 331°
2026-05-04 16:39 39.86196 -104.67638 5373 ft 17 kts 268°
2026-05-04 16:40 39.86135 -104.67870 5374 ft 12 kts 268°
2026-05-04 16:40 39.86138 -104.68070 5374 ft 11 kts 271°
2026-05-04 16:41 39.86135 -104.68270 5370 ft 11 kts 268°
2026-05-04 16:41 39.86025 -104.68393 5371 ft 5 kts 180°
2026-05-04 16:42 39.85668 -104.68399 5372 ft 26 kts 179°
2026-05-04 16:43 39.85396 -104.68400 5381 ft 14 kts 179°
2026-05-04 16:43 39.85218 -104.68413 5378 ft 11 kts 225°
2026-05-04 16:43 39.85204 -104.68498 5378 ft 9 kts 265°
2026-05-04 16:44 39.85197 -104.69456 5340 ft 30 kts 272°
2026-05-04 16:45 39.85255 -104.69657 5339 ft 11 kts 358°
2026-05-04 16:46 39.86549 -104.69650 5333 ft 151 kts 360°
2026-05-04 16:46 39.89122 -104.69590 6243 ft 193 kts
2026-05-04 16:47 39.90818 -104.66995 7362 ft 229 kts 89°
2026-05-04 16:47 39.89400 -104.62951 8179 ft 261 kts 122°
2026-05-04 16:48 39.86208 -104.56391 9171 ft 302 kts 118°
2026-05-04 16:48 39.85280 -104.53922 9738 ft 307 kts 112°
2026-05-04 16:49 39.83718 -104.48673 9926 ft 324 kts 109°
2026-05-04 16:49 39.82144 -104.43137 9924 ft 320 kts 110°
2026-05-04 16:50 39.81016 -104.37494 10059 ft 332 kts 89°
2026-05-04 16:50 39.80778 -104.31236 10692 ft 356 kts 94°
2026-05-04 16:51 39.80090 -104.24804 11788 ft 362 kts 98°
2026-05-04 16:51 39.79679 -104.21557 12389 ft 365 kts 98°
2026-05-04 16:51 39.78862 -104.14995 13504 ft 371 kts 97°
2026-05-04 16:52 39.78106 -104.08313 14499 ft 376 kts 97°
2026-05-04 16:52 39.77752 -104.04928 15014 ft 379 kts 97°
2026-05-04 16:53 39.77043 -103.98083 16005 ft 385 kts 97°
2026-05-04 16:53 39.75879 -103.87661 17460 ft 393 kts 99°
2026-05-04 16:54 39.75431 -103.84144 17929 ft 396 kts 99°
2026-05-04 16:55 39.73724 -103.69823 19418 ft 408 kts 96°
2026-05-04 16:55 39.73206 -103.62420 20118 ft 414 kts 95°
2026-05-04 16:56 39.72695 -103.54922 20797 ft 419 kts 96°
2026-05-04 16:56 39.71800 -103.43500 21720 ft 429 kts 96°
2026-05-04 16:57 39.71480 -103.39627 22033 ft 432 kts 96°
2026-05-04 16:57 39.70834 -103.31826 22693 ft 437 kts 96°
2026-05-04 16:58 39.69867 -103.20034 23683 ft 443 kts 96°
2026-05-04 16:58 39.69539 -103.16053 23952 ft 445 kts 96°
2026-05-04 16:59 39.68868 -103.07998 24451 ft 452 kts 96°
2026-05-04 17:00 39.67483 -102.91595 25520 ft 462 kts 96°
2026-05-04 17:00 39.66411 -102.79072 26299 ft 469 kts 97°
2026-05-04 17:01 39.65679 -102.70610 26815 ft 474 kts 97°
2026-05-04 17:01 39.64933 -102.62088 27327 ft 478 kts 97°
2026-05-04 17:02 39.64174 -102.53489 27824 ft 482 kts 97°
2026-05-04 17:02 39.63405 -102.44814 28318 ft 486 kts 97°
2026-05-04 17:03 39.63022 -102.40501 28557 ft 488 kts 97°
2026-05-04 17:03 39.62632 -102.36118 28788 ft 491 kts 97°
2026-05-04 17:03 39.61830 -102.27288 29266 ft 494 kts 97°
2026-05-04 17:04 39.61018 -102.18404 29685 ft 498 kts 97°
2026-05-04 17:04 39.60196 -102.09436 29987 ft 503 kts 97°
2026-05-04 17:05 39.59356 -102.00391 30262 ft 508 kts 97°
2026-05-04 17:05 39.58589 -101.91253 30590 ft 511 kts 96°
2026-05-04 17:06 39.57899 -101.82067 30918 ft 513 kts 95°
2026-05-04 17:06 39.57549 -101.77456 31080 ft 515 kts 95°
2026-05-04 17:07 39.56816 -101.68202 31395 ft 518 kts 96°
2026-05-04 17:07 39.56564 -101.65127 31534 ft 518 kts 96°
2026-05-04 17:07 39.56051 -101.58918 31795 ft 518 kts 96°
2026-05-04 17:07 39.55669 -101.54328 31956 ft 519 kts 96°
2026-05-04 17:08 39.55282 -101.49671 32106 ft 521 kts 96°
2026-05-04 17:08 39.54892 -101.44995 32249 ft 522 kts 96°